User: anonymous   Login
Location: Street
(51.1247°N, 2.7429°W)
Time: 23:10:35
(UTC+00:00)
Language:

deb Explorer IX - Orbit

View from above orbital plane
View from above orbital plane
View from above satellite
View from above satellite

Ground track
Ground track

The orbit data is extracted from the following two-line orbital elements,

1    85U 61004C   20340.01564995 +.00001480 +00000-0 +32100-3 0  9994
2    85 038.7702 230.4767 0394365 197.6979 160.9681 14.21249332955369
Epoch (UTC): 05 December 2020 00:22:32
Eccentricity: 0.0394365
inclination: 38.7702°
perigee height: 537 km
apogee height: 1105 km
right ascension of ascending node: 230.4767°
argument of perigee: 197.6979°
revolutions per day: 14.21249332
mean anomaly at epoch: 160.9681°
orbit number at epoch: 95536

The dashed part of the orbit path shows where the satellite is in the earth's shadow,  

DLR